Regional Weather Roundup
Issued by NWS

Home | Current Version | Previous Version | Graphics & Text | Print | Product List | Glossary On
Versions: 1 2 3 4 5 6 7 8 9 10 11 12 13 14 15 16 17 18 19 20 21 22 23 24 25 26 27 28 29 30 31 32 33 34 35 36 37 38 39 40 41 42 43 44 45 46 47 48 49 50
273
ASUS43 KDTX 110710
RWRMI
MICHIGAN HOURLY REGIONAL WEATHER ROUNDUP
NATIONAL WEATHER SERVICE DETROIT/PONTIAC MI
200 AM EST SUN DEC 11 2016

NOTE: "FAIR" INDICATES FEW OR NO CLOUDS BELOW 12,000 FEET WITH NO
SIGNIFICANT WEATHER AND/OR OBSTRUCTION TO VISIBILITY.

MIZ047>049-052>055-059>063-066>070-074>076-081>083-110800-
SOUTHEAST LOWER MICHIGAN

CITY           SKY/WX    TMP DP  RH WIND       PRES   REMARKS
ADRIAN         LGT SNOW  22  22 100 S6        30.37F FOG     WCI  14
ALMA           LGT SNOW  23  21  93 S3        30.33F
ANN ARBOR      LGT SNOW  22  20  92 S5        30.36F FOG     WCI  16
BAD AXE        CLOUDY    18  13  79 S6        30.35S WCI  10
CARO           CLOUDY    21  18  87 CALM      30.35S
DETROIT CITY   CLOUDY    25  15  66 W8        30.38F WCI  16
DETROIT        LGT SNOW  24  19  81 SW7       30.39S WCI  16
FLINT          LGT SNOW  22  17  81 SW7       30.35F WCI  13
GROSSE ILE     CLOUDY    26  17  71 SW6       30.37F WCI  19
HILLSDALE      LGT SNOW  21  19  93 SE3       30.31F
HOWELL         LGT SNOW  22  19  89 SW5       30.35S WCI  16

CITY           SKY/WX    TMP DP  RH WIND       PRES   REMARKS
JACKSON        LGT SNOW  22  18  85 S5        30.34S FOG     WCI  16
LAMBERTVILLE   LGT SNOW  25  22  87 CALM      30.39R
LANSING        LGT SNOW  22  18  85 S9        30.34F FOG     WCI  12
LAPEER         NOT AVBL
MASON          LGT SNOW  22  20  92 CALM      30.34S
MONROE         LGT SNOW  25  20  82 SW6       30.38S WCI  18
MT. CLEMENS    MOCLDY    25  17  70 SW5       30.35F WCI  19
PONTIAC        LGT SNOW  22  16  78 SW7       30.33F WCI  13
PORT HOPE        N/A     20  12  71 CALM      30.33F
PORT HURON     CLOUDY    23  19  86 CALM      30.37S
TRI CITIES     LGT SNOW  21  18  88 S6        30.35F FOG     WCI  13
MIDLAND        LGT SNOW  21  16  80 CALM      30.34F
TROY           CLOUDY    26  14  62 SW6       30.38S WCI  19
SAGINAW HB     LGT SNOW  23  18  80 S5        30.35S WCI  17
$$
MIZ043>046-050>051-056>058-064>065-071>073-077>080-110800-
SOUTHWEST LOWER MICHIGAN

CITY           SKY/WX    TMP DP  RH WIND       PRES   REMARKS
BATTLE CREEK   LGT SNOW  22  20  92 S7        30.31F FOG     WCI  13
BENTON HARBOR  LGT SNOW  24  20  84 SE6       30.29F VSB 1   WCI  17
BIG RAPIDS     LGT SNOW  19  17  91 SE5       30.27F WCI  13
COLDWATER      LGT SNOW  23  21  93 SE3       30.32F
FREMONT        LGT SNOW  21  19  94 E5        30.27F WCI  14
HOLLAND        LGT SNOW  23  19  85 S13       30.29F FOG     WCI  11
GRAND RAPIDS   LGT SNOW  22  18  85 S10       30.30F FOG     WCI  11
IONIA          LGT SNOW  21  19  91 S7        30.31F WCI  13
KALAMAZOO      LGT SNOW  23  19  85 SE6       30.31F VSB 3/4 WCI  16
LUDINGTON      LGT SNOW  19  18  95 SE3       30.28F
MARSHALL       LGT SNOW  22  20  92 CALM      30.32F
MOUNT PLEASANT LGT SNOW  20  18  89 CALM      30.32F
MUSKEGON       LGT SNOW  24  21  88 SE10      30.27F VSB 3/4 WCI  14
SOUTH HAVEN    LGT SNOW  22  20  93 SE5       30.30F WCI  16
$$
MIZ016>042-110800-
NORTHERN LOWER MICHIGAN

CITY           SKY/WX    TMP DP  RH WIND       PRES   REMARKS
ALPENA         PTCLDY    15   8  73 W5        30.31F WCI   8
BEAVER ISLAND  LGT SNOW  19  19 100 CALM      30.27F
BELLAIRE       CLOUDY    19  14  79 S3        30.30F
CADILLAC       CLOUDY    17  13  84 S5        30.24F WCI  10
CHARLEVOIX     FLURRIES  20  16  82 S8        30.30F WCI  11
FRANKFORT      LGT SNOW  20  19  93 SE6       30.28F WCI  12
GAYLORD        CLOUDY    13   8  81 SW6       30.24F WCI   4
GRAYLING       CLOUDY    12   9  87 CALM      30.27F
HARBOR SPRINGS CLOUDY    20  16  82 S7        30.26F WCI  11
HOUGHTON LAKE  CLOUDY    17  12  80 S7        30.28F WCI   8
MANISTEE       LGT SNOW  19  16  88 SE6       30.28F FOG     WCI  11
OSCODA         MOCLDY    18  12  79 MISG      30.32F
PELLSTON       CLOUDY    15  11  83 SE5       30.27F WCI   8
ROGERS CITY    MOCLDY    17   9  72 SW8       30.30F WCI   6
TRAVERSE CITY  CLOUDY    20  13  74 CALM      30.28F
$$
MIZ007>008-015-110800-
EASTERN UPPER MICHIGAN

CITY           SKY/WX    TMP DP  RH WIND       PRES   REMARKS
KINROSS        CLOUDY    12   9  87 SE7       30.26S WCI   1
MACKINAC ISLAN LGT SNOW  19  16  85 CALM      30.26S
NEWBERRY       CLOUDY    11   6  78 W8        30.25S WCI   0
S. S. MARIE    PTCLDY    10   4  76 E5        30.27R WCI   2
MUNISING         N/A      4  -1  80 S8        30.26F WCI  -9
$$
MIZ004>006-011>014-085-110800-
CENTRAL UPPER MICHIGAN

CITY           SKY/WX    TMP DP  RH WIND       PRES   REMARKS
MANISTIQUE     CLOUDY     7   3  85 CALM      30.28S
ESCANABA       CLOUDY    12   7  80 NW3       30.29F
MENOMINEE      LGT SNOW  14   8  77 CALM      30.29F
SAWYER-GWINN   CLOUDY     3  -1  83 CALM      30.22F
$$
MIZ001>003-009>011-084-110800-
WESTERN UPPER MICHIGAN

CITY           SKY/WX    TMP DP  RH WIND       PRES   REMARKS
IRON MOUNTAIN  CLOUDY     8   3  80 CALM      30.22F
HOUGHTON       PTCLDY     5  -2  72 W7        30.21F WCI  -7
COPPER HARBOR    N/A     11   7  84 VRB5      30.25F WCI   3
IRONWOOD       MOCLDY    -2  -5  87 E3        30.20F
$$

ABBREVIATIONS USED IN REMARKS
   TC - TEMPERATURE IN CELSIUS
  WCI - WIND CHILL INDEX
   HX - HEAT INDEX
  VSB - VISIBILITY





USA.gov is the U.S. government's official web portal to all federal, state and local government web resources and services.